Terminal Aerodrome Forecast
Issued by NWS

Current Version | Previous Version | Text Only | Print | Product List | Glossary On
Versions: 1 2 3 4 5 6 7 8 9 10 11 12 13 14 15 16 17 18 19 20 21 22 23 24 25 26 27 28 29 30 31 32 33 34 35 36 37 38 39 40 41 42 43 44 45 46 47
856
FTUS42 KMFL 231131
TAFMIA
TAF
KMIA 231131Z 2312/2418 13007KT P6SM BKN015 BKN030 OVC150
     FM231400 16010KT P6SM SCT025 BKN050
     FM240000 19005KT P6SM VCSH SCT025 BKN050
     FM240200 VRB03KT P6SM BKN050
     FM240600 32003KT P6SM OVC025=

USA.gov is the U.S. government's official web portal to all federal, state and local government web resources and services.